• In Belarus
  • List of Countries
  • For 7 days
  • Water Temperature
  • Satellite Maps
  • Weather Map
  • Weather Widgets
  • user-avatar
    Login

    Hourly Weather Szczyglice

    Today, 21 September, Friday

    Time Temperature Precipitation Wind Pressure Humidity
    00:00 +21°C° 0 mm 3 mps 751 mmHg 61%
    01:00 +21°C° 0 mm 3 mps 750 mmHg 62%
    02:00 +21°C° 0 mm 3 mps 750 mmHg 64%
    03:00 +20°C° 0 mm 3 mps 750 mmHg 65%
    04:00 +20°C° 0 mm 3 mps 749 mmHg 67%
    05:00 +20°C° 0 mm 3 mps 749 mmHg 67%
    06:00 +20°C° 0 mm 3 mps 749 mmHg 66%
    07:00 +21°C° 0 mm 3 mps 749 mmHg 66%
    08:00 +23°C° 0 mm 4 mps 748 mmHg 59%
    09:00 +26°C° 0 mm 5 mps 748 mmHg 51%
    10:00 +28°C° 0 mm 5 mps 748 mmHg 44%
    11:00 +29°C° 0 mm 6 mps 747 mmHg 40%
    12:00 +30°C° 0 mm 6 mps 746 mmHg 37%
    13:00 +32°C° 0 mm 6 mps 746 mmHg 33%
    14:00 +30°C° 0 mm 6 mps 745 mmHg 35%
    15:00 +30°C° 0 mm 6 mps 745 mmHg 36%
    16:00 +30°C° 0 mm 6 mps 744 mmHg 37%
    17:00 +27°C° 0.3 mm 6 mps 745 mmHg 46%
    18:00 +24°C° 0.3 mm 6 mps 745 mmHg 55%
    19:00 +21°C° 0.3 mm 7 mps 746 mmHg 64%
    20:00 +19°C° 0.4 mm 6 mps 747 mmHg 67%
    21:00 +16°C° 0.4 mm 6 mps 748 mmHg 70%
    22:00 +14°C° 0.4 mm 5 mps 749 mmHg 73%
    23:00 +14°C° 0.2 mm 5 mps 749 mmHg 72%

    Tomorrow, 22 September, Saturday

    Time Temperature Precipitation Wind Pressure Humidity
    00:00 +13°C° 0.2 mm 4 mps 750 mmHg 72%
    01:00 +13°C° 0.2 mm 3 mps 751 mmHg 71%
    02:00 +13°C° 0 mm 3 mps 751 mmHg 70%
    03:00 +12°C° 0 mm 3 mps 751 mmHg 69%
    04:00 +12°C° 0 mm 3 mps 752 mmHg 68%
    05:00 +12°C° 0 mm 4 mps 752 mmHg 67%
    06:00 +12°C° 0 mm 4 mps 752 mmHg 66%
    07:00 +12°C° 0 mm 5 mps 752 mmHg 65%
    08:00 +13°C° 0 mm 5 mps 752 mmHg 60%
    09:00 +14°C° 0 mm 6 mps 752 mmHg 55%
    10:00 +15°C° 0 mm 6 mps 753 mmHg 51%
    11:00 +16°C° 0 mm 6 mps 752 mmHg 49%
    12:00 +16°C° 0 mm 6 mps 752 mmHg 47%
    13:00 +17°C° 0 mm 6 mps 752 mmHg 45%
    14:00 +17°C° 0 mm 6 mps 752 mmHg 45%
    15:00 +17°C° 0 mm 6 mps 752 mmHg 44%
    16:00 +17°C° 0 mm 6 mps 752 mmHg 44%
    17:00 +16°C° 0 mm 5 mps 753 mmHg 47%
    18:00 +15°C° 0 mm 5 mps 753 mmHg 51%
    19:00 +14°C° 0 mm 4 mps 753 mmHg 55%
    20:00 +13°C° 0 mm 4 mps 753 mmHg 56%
    21:00 +13°C° 0 mm 4 mps 754 mmHg 57%
    22:00 +12°C° 0 mm 4 mps 754 mmHg 58%
    23:00 +12°C° 0 mm 4 mps 754 mmHg 60%

    Day after tomorrow, 23 September, Sunday

    Time Temperature Precipitation Wind Pressure Humidity
    00:00 +11°C° 0 mm 4 mps 754 mmHg 62%
    01:00 +11°C° 0 mm 3 mps 754 mmHg 64%
    02:00 +10°C° 0 mm 3 mps 754 mmHg 66%
    03:00 +10°C° 0 mm 3 mps 754 mmHg 67%
    04:00 +10°C° 0 mm 3 mps 754 mmHg 69%
    05:00 +10°C° 0 mm 3 mps 754 mmHg 67%
    06:00 +11°C° 0 mm 3 mps 754 mmHg 66%
    07:00 +11°C° 0 mm 3 mps 754 mmHg 65%
    08:00 +12°C° 0 mm 4 mps 754 mmHg 61%
    09:00 +13°C° 0 mm 4 mps 754 mmHg 58%
    10:00 +14°C° 0 mm 4 mps 753 mmHg 54%
    11:00 +15°C° 0 mm 4 mps 753 mmHg 54%
    12:00 +15°C° 0 mm 4 mps 752 mmHg 54%
    13:00 +15°C° 0 mm 4 mps 752 mmHg 54%
    14:00 +16°C° 0.2 mm 3 mps 751 mmHg 60%
    15:00 +14°C° 0.2 mm 3 mps 750 mmHg 65%
    16:00 +13°C° 0.2 mm 3 mps 750 mmHg 71%
    17:00 +13°C° 0.5 mm 3 mps 749 mmHg 76%
    18:00 +12°C° 0.5 mm 3 mps 748 mmHg 81%
    19:00 +13°C° 0.5 mm 2 mps 747 mmHg 86%
    20:00 +12°C° 2.4 mm 3 mps 745 mmHg 87%
    21:00 +12°C° 2.4 mm 4 mps 744 mmHg 89%
    22:00 +13°C° 2.4 mm 5 mps 742 mmHg 90%
    23:00 +14°C° 2 mm 5 mps 741 mmHg 90%

    24 September, Monday

    Time Temperature Precipitation Wind Pressure Humidity
    00:00 +15°C° 2 mm 5 mps 739 mmHg 89%
    01:00 +17°C° 2 mm 6 mps 737 mmHg 88%
    02:00 +16°C° 1.4 mm 7 mps 737 mmHg 86%
    03:00 +15°C° 1.4 mm 7 mps 737 mmHg 85%
    04:00 +13°C° 1.4 mm 8 mps 737 mmHg 83%
    05:00 +11°C° 0.4 mm 9 mps 739 mmHg 83%
    06:00 +10°C° 0.4 mm 9 mps 742 mmHg 82%
    07:00 +7°C° 0.4 mm 10 mps 744 mmHg 81%
    08:00 +8°C° 0.1 mm 10 mps 746 mmHg 77%
    09:00 +9°C° 0.1 mm 10 mps 749 mmHg 73%
    10:00 +9°C° 0.1 mm 10 mps 751 mmHg 68%
    11:00 +11°C° 0.2 mm 10 mps 751 mmHg 62%
    12:00 +12°C° 0.2 mm 10 mps 752 mmHg 56%
    13:00 +12°C° 0.2 mm 10 mps 753 mmHg 51%
    14:00 +12°C° 0.1 mm 9 mps 753 mmHg 49%
    15:00 +12°C° 0.1 mm 9 mps 754 mmHg 48%
    16:00 +12°C° 0.1 mm 8 mps 755 mmHg 47%
    17:00 +11°C° 0.1 mm 7 mps 756 mmHg 52%
    18:00 +10°C° 0.1 mm 6 mps 757 mmHg 57%
    19:00 +9°C° 0.1 mm 5 mps 757 mmHg 62%
    20:00 +8°C° 0 mm 4 mps 758 mmHg 64%
    21:00 +8°C° 0 mm 4 mps 759 mmHg 66%
    22:00 +7°C° 0 mm 4 mps 759 mmHg 68%
    23:00 +7°C° 0 mm 4 mps 760 mmHg 70%

    25 September, Tuesday

    Time Temperature Precipitation Wind Pressure Humidity
    00:00 +7°C° 0 mm 4 mps 760 mmHg 71%
    01:00 +6°C° 0 mm 4 mps 761 mmHg 73%
    02:00 +6°C° 0 mm 4 mps 761 mmHg 75%
    03:00 +6°C° 0 mm 4 mps 762 mmHg 77%
    04:00 +5°C° 0 mm 4 mps 762 mmHg 79%
    05:00 +5°C° 0 mm 4 mps 763 mmHg 79%
    06:00 +5°C° 0 mm 4 mps 763 mmHg 79%
    07:00 +5°C° 0 mm 4 mps 764 mmHg 79%
    08:00 +7°C° 0 mm 4 mps 765 mmHg 68%
    09:00 +10°C° 0 mm 4 mps 765 mmHg 58%
    10:00 +12°C° 0 mm 4 mps 766 mmHg 48%
    11:00 +12°C° 0 mm 5 mps 766 mmHg 44%
    12:00 +13°C° 0 mm 5 mps 766 mmHg 41%
    13:00 +14°C° 0 mm 5 mps 766 mmHg 38%
    14:00 +14°C° 0 mm 5 mps 766 mmHg 38%
    15:00 +14°C° 0 mm 5 mps 766 mmHg 39%
    16:00 +13°C° 0 mm 5 mps 766 mmHg 40%
    17:00 +12°C° 0 mm 4 mps 766 mmHg 45%
    18:00 +11°C° 0 mm 4 mps 766 mmHg 50%
    19:00 +9°C° 0 mm 3 mps 766 mmHg 55%
    20:00 +8°C° 0 mm 4 mps 766 mmHg 56%
    21:00 +8°C° 0 mm 4 mps 765 mmHg 56%
    22:00 +9°C° 0 mm 5 mps 765 mmHg 57%
    23:00 +9°C° 0 mm 5 mps 765 mmHg 58%

    26 September, Wednesday

    Time Temperature Precipitation Wind Pressure Humidity
    00:00 +9°C° 0 mm 5 mps 765 mmHg 60%
    01:00 +9°C° 0 mm 6 mps 765 mmHg 61%
    02:00 +8°C° 0 mm 6 mps 765 mmHg 66%
    03:00 +8°C° 0 mm 6 mps 764 mmHg 71%
    04:00 +8°C° 0 mm 6 mps 764 mmHg 75%
    05:00 +7°C° 0 mm 6 mps 764 mmHg 78%
    06:00 +7°C° 0 mm 6 mps 764 mmHg 80%
    07:00 +7°C° 0 mm 6 mps 764 mmHg 82%
    08:00 +9°C° 0 mm 6 mps 765 mmHg 77%
    09:00 +10°C° 0 mm 6 mps 765 mmHg 72%
    10:00 +13°C° 0 mm 5 mps 765 mmHg 66%
    11:00 +13°C° 0 mm 5 mps 765 mmHg 65%
    12:00 +13°C° 0 mm 5 mps 765 mmHg 63%
    13:00 +14°C° 0 mm 5 mps 765 mmHg 62%
    14:00 +14°C° 0 mm 5 mps 765 mmHg 61%
    15:00 +14°C° 0 mm 4 mps 764 mmHg 61%
    16:00 +14°C° 0 mm 4 mps 764 mmHg 61%
    17:00 +12°C° 0 mm 3 mps 764 mmHg 66%
    18:00 +11°C° 0 mm 3 mps 764 mmHg 71%
    19:00 +10°C° 0 mm 2 mps 765 mmHg 76%
    20:00 +10°C° 0 mm 2 mps 765 mmHg 78%
    21:00 +9°C° 0 mm 2 mps 765 mmHg 80%
    22:00 +9°C° 0 mm 2 mps 765 mmHg 82%
    23:00 +8°C° 0 mm 2 mps 765 mmHg 83%
    Show more